INTELSAT 26 (IS-26)

Last updated on Dec. 3, 2020, 6:13 a.m. UTC

1 24732U 97007A   20337.70674654  .00000019  00000-0  00000-0 0  9995
2 24732   9.2759  41.9960 0002760 225.4665 122.6006  1.00273369 52450
UTC
Height (km)
Latitude
Longitude
Inclination
Orbital Period
UTC large
Height (km)
Speed (km/s)
/
Latitude / Longitude
Inclination (degrees)
Orbital Period (minutes)
Azimuth
Elevation
Range (km)
Doppler Factor
iOS Compass Heading
iOS Angle

Next 30 passes for location: Hong Kong

Rise time Rise Azimuth (degrees) Set time Set Azimuth (degrees) Duration Max altitude (degrees)

No matching passes for this satellites